CES9805 ZUTF-ZSAM

Flight info

Callsign CES9805
Flight time 2h 4m
Altitude 33100
Route ATVAX9G ATVAX W234 NIXID/K0870S1070 B330 QP G586 WYN DCT MABAG DCT XEBUL DCT NUVGA DCT VETIB W155 TEBON TEBON8X
Aircraft A21N/M-SDE3FGHIRWY/LB1

Departure

Time 2026-05-04 05:42
Airport Chengdu Tianfu International Airport (ZUTF)

Arrival

Time 2026-05-04 07:46
Airport Xiamen Gaoqi International Airport (ZSAM)
Time Latitude Longitude Altitude Speed Heading
2026-05-04 05:11 30.31664 104.43825 1460 ft 0 kts 144°
2026-05-04 05:32 30.31672 104.43818 1460 ft 2 kts 144°
2026-05-04 05:32 30.31684 104.43808 1460 ft 2 kts 144°
2026-05-04 05:32 30.31696 104.43798 1460 ft 2 kts 144°
2026-05-04 05:33 30.31721 104.43778 1460 ft 2 kts 149°
2026-05-04 05:33 30.31736 104.43772 1460 ft 2 kts 174°
2026-05-04 05:33 30.31751 104.43773 1460 ft 2 kts 192°
2026-05-04 05:33 30.31764 104.43778 1460 ft 1 kts 211°
2026-05-04 05:34 30.31770 104.43783 1460 ft 1 kts 218°
2026-05-04 05:34 30.31772 104.43784 1460 ft 0 kts 216°
2026-05-04 05:36 30.31769 104.43782 1460 ft 0 kts 216°
2026-05-04 05:36 30.31756 104.43769 1460 ft 4 kts 227°
2026-05-04 05:36 30.31732 104.43717 1460 ft 10 kts 253°
2026-05-04 05:36 30.31737 104.43603 1460 ft 18 kts 288°
2026-05-04 05:37 30.31794 104.43444 1460 ft 24 kts 292°
2026-05-04 05:37 30.31809 104.43265 1460 ft 23 kts 214°
2026-05-04 05:37 30.31661 104.43193 1460 ft 24 kts 202°
2026-05-04 05:38 30.31317 104.43030 1460 ft 28 kts 202°
2026-05-04 05:38 30.31137 104.42946 1460 ft 27 kts 202°
2026-05-04 05:38 30.30963 104.42865 1460 ft 26 kts 201°
2026-05-04 05:38 30.30793 104.42785 1460 ft 27 kts 202°
2026-05-04 05:39 30.30615 104.42700 1460 ft 27 kts 202°
2026-05-04 05:39 30.30249 104.42529 1460 ft 29 kts 201°
2026-05-04 05:39 30.30057 104.42439 1460 ft 29 kts 202°
2026-05-04 05:40 30.29582 104.42217 1460 ft 34 kts 202°
2026-05-04 05:40 30.29371 104.42120 1460 ft 27 kts 211°
2026-05-04 05:40 30.29390 104.41986 1460 ft 17 kts 286°
2026-05-04 05:41 30.29482 104.41955 1460 ft 15 kts 21°
2026-05-04 05:41 30.29637 104.42028 1460 ft 49 kts 22°
2026-05-04 05:41 30.30185 104.42290 1460 ft 117 kts 20°
2026-05-04 05:41 30.31125 104.42731 1461 ft 172 kts 23°
2026-05-04 05:42 30.32346 104.43291 1698 ft 197 kts 22°
2026-05-04 05:42 30.33676 104.43865 2138 ft 212 kts 18°
2026-05-04 05:42 30.35142 104.44106 2852 ft 217 kts
2026-05-04 05:42 30.36691 104.44205 3308 ft 231 kts
2026-05-04 05:43 30.38381 104.44382 3595 ft 252 kts 10°
2026-05-04 05:43 30.40125 104.44922 3999 ft 268 kts 24°
2026-05-04 05:43 30.41846 104.45900 4634 ft 276 kts 30°
2026-05-04 05:45 30.54001 104.53715 9759 ft 296 kts 27°
2026-05-04 05:45 30.55800 104.54864 10440 ft 299 kts 27°
2026-05-04 05:47 30.70837 104.64870 12449 ft 410 kts 43°
2026-05-04 05:47 30.72489 104.67605 12837 ft 421 kts 64°
2026-05-04 05:47 30.73249 104.70940 13447 ft 424 kts 84°
2026-05-04 05:48 30.72990 104.74339 14031 ft 428 kts 104°
2026-05-04 05:48 30.71722 104.77467 14550 ft 431 kts 125°
2026-05-04 05:48 30.69589 104.79894 15058 ft 433 kts 146°
2026-05-04 05:48 30.66816 104.81328 15531 ft 434 kts 167°
2026-05-04 05:49 30.63827 104.81611 16040 ft 434 kts 182°
2026-05-04 05:49 30.60777 104.81563 16553 ft 438 kts 182°
2026-05-04 05:49 30.57738 104.81542 17002 ft 442 kts 182°
2026-05-04 05:49 30.54622 104.81538 17484 ft 445 kts 182°
2026-05-04 05:51 30.32304 104.81625 20434 ft 468 kts 183°
2026-05-04 05:51 30.29055 104.81642 20796 ft 471 kts 184°
2026-05-04 05:52 30.25730 104.81657 21164 ft 474 kts 184°
2026-05-04 05:52 30.22417 104.81679 21518 ft 477 kts 183°
2026-05-04 05:52 30.19086 104.81839 21884 ft 481 kts 180°
2026-05-04 05:52 30.15744 104.82206 22243 ft 486 kts 178°
2026-05-04 05:53 30.12410 104.82747 22550 ft 490 kts 176°
2026-05-04 05:54 29.88579 104.88017 25083 ft 504 kts 167°
2026-05-04 05:55 29.85278 104.89257 25449 ft 504 kts 167°
2026-05-04 05:55 29.81857 104.90553 25809 ft 504 kts 167°
2026-05-04 05:55 29.78522 104.91815 26160 ft 503 kts 167°
2026-05-04 05:55 29.75159 104.93081 26488 ft 504 kts 167°
2026-05-04 05:56 29.71830 104.94328 26780 ft 504 kts 168°
2026-05-04 05:56 29.68480 104.95579 27058 ft 506 kts 168°
2026-05-04 05:56 29.65153 104.96819 27368 ft 505 kts 168°
2026-05-04 05:56 29.61784 104.98077 27680 ft 506 kts 168°
2026-05-04 05:57 29.58453 104.99320 27980 ft 506 kts 168°
2026-05-04 05:57 29.55074 105.00581 28265 ft 506 kts 168°
2026-05-04 05:57 29.51748 105.01819 28588 ft 506 kts 168°
2026-05-04 05:57 29.48389 105.03079 28879 ft 506 kts 168°
2026-05-04 05:58 29.45048 105.04363 29204 ft 506 kts 168°
2026-05-04 05:58 29.41700 105.05655 29496 ft 505 kts 168°
2026-05-04 05:58 29.38357 105.06947 29760 ft 505 kts 168°
2026-05-04 05:58 29.35041 105.08225 30009 ft 505 kts 168°
2026-05-04 05:59 29.31685 105.09518 30257 ft 505 kts 168°
2026-05-04 05:59 29.28363 105.10796 30509 ft 505 kts 168°
2026-05-04 05:59 29.25175 105.12020 30774 ft 504 kts 168°
2026-05-04 05:59 29.21886 105.13279 31018 ft 503 kts 168°
2026-05-04 06:00 29.18559 105.14552 31267 ft 503 kts 168°
2026-05-04 06:00 29.15201 105.15836 31504 ft 503 kts 168°
2026-05-04 06:00 29.11859 105.17113 31678 ft 504 kts 168°
2026-05-04 06:00 29.08538 105.18381 31885 ft 504 kts 168°
2026-05-04 06:01 29.05205 105.19650 32107 ft 504 kts 169°
2026-05-04 06:01 29.01856 105.20924 32294 ft 504 kts 169°
2026-05-04 06:03 28.78586 105.29768 33120 ft 507 kts 169°
2026-05-04 06:03 28.75218 105.31046 33127 ft 507 kts 169°
2026-05-04 06:05 28.45266 105.42369 33190 ft 502 kts 169°
2026-05-04 06:06 28.38652 105.44862 33204 ft 500 kts 170°
2026-05-04 06:06 28.32018 105.47356 33225 ft 502 kts 170°
2026-05-04 06:07 28.25389 105.49847 33237 ft 501 kts 170°
2026-05-04 06:07 28.18766 105.52335 33239 ft 501 kts 169°
2026-05-04 06:08 28.12158 105.54816 33239 ft 499 kts 170°
2026-05-04 06:08 28.05545 105.57043 33244 ft 493 kts 175°
2026-05-04 06:09 27.98843 105.58437 33238 ft 483 kts 181°
2026-05-04 06:11 27.72482 105.65863 33207 ft 509 kts 162°
2026-05-04 06:13 27.47092 105.79909 33258 ft 508 kts 162°
2026-05-04 06:14 27.24711 105.91961 33271 ft 509 kts 162°
2026-05-04 06:15 27.18327 105.95391 33265 ft 508 kts 162°
2026-05-04 06:15 27.11942 105.98869 33270 ft 511 kts 159°
2026-05-04 06:16 27.05857 106.03217 33255 ft 523 kts 148°
2026-05-04 06:16 27.00430 106.08717 33264 ft 531 kts 137°
2026-05-04 06:17 26.95774 106.15177 33258 ft 536 kts 131°
2026-05-04 06:17 26.91361 106.21855 33265 ft 536 kts 130°
2026-05-04 06:18 26.87067 106.28295 33261 ft 535 kts 131°
2026-05-04 06:20 26.69148 106.54771 33268 ft 534 kts 131°
2026-05-04 06:21 26.57969 106.71236 33273 ft 533 kts 130°
2026-05-04 06:22 26.53955 106.78185 33275 ft 538 kts 123°
2026-05-04 06:25 26.37746 107.34099 33248 ft 542 kts 109°
2026-05-04 06:26 26.35620 107.42127 33241 ft 543 kts 109°
2026-05-04 06:26 26.33482 107.50194 33231 ft 543 kts 109°
2026-05-04 06:27 26.28145 107.70255 33225 ft 541 kts 109°
2026-05-04 06:28 26.26000 107.78280 33227 ft 541 kts 110°
2026-05-04 06:28 26.23850 107.86296 33224 ft 541 kts 110°
2026-05-04 06:29 26.21714 107.94310 33221 ft 541 kts 109°
2026-05-04 06:29 26.19607 108.02305 33211 ft 540 kts 110°
2026-05-04 06:30 26.17492 108.10287 33210 ft 540 kts 109°
2026-05-04 06:30 26.15360 108.18312 33199 ft 541 kts 110°
2026-05-04 06:31 26.13244 108.26264 33211 ft 540 kts 110°
2026-05-04 06:31 26.11113 108.34259 33211 ft 540 kts 110°
2026-05-04 06:33 26.02630 108.66222 33195 ft 540 kts 110°
2026-05-04 06:34 26.00508 108.74210 33202 ft 539 kts 111°
2026-05-04 06:34 25.98390 108.82192 33199 ft 539 kts 110°
2026-05-04 06:36 25.89972 109.14043 33177 ft 540 kts 110°
2026-05-04 06:37 25.87884 109.22054 33176 ft 540 kts 110°
2026-05-04 06:37 25.85807 109.30003 33174 ft 540 kts 110°
2026-05-04 06:38 25.83706 109.38019 33167 ft 540 kts 110°
2026-05-04 06:40 25.73874 109.64431 33149 ft 518 kts 135°
2026-05-04 06:40 25.71566 109.67426 33152 ft 512 kts 141°
2026-05-04 06:40 25.66500 109.72868 33156 ft 507 kts 145°
2026-05-04 06:41 25.61345 109.78225 33165 ft 507 kts 145°
2026-05-04 06:41 25.56241 109.83575 33175 ft 507 kts 145°
2026-05-04 06:42 25.51112 109.88975 33173 ft 509 kts 144°
2026-05-04 06:44 25.30703 110.10448 33148 ft 505 kts 145°
2026-05-04 06:44 25.25603 110.15797 33144 ft 506 kts 144°
2026-05-04 06:45 25.20484 110.21158 33138 ft 506 kts 144°
2026-05-04 06:45 25.15415 110.26509 33135 ft 506 kts 144°
2026-05-04 06:46 25.10330 110.31893 33135 ft 507 kts 144°
2026-05-04 06:46 25.05211 110.37314 33139 ft 507 kts 144°
2026-05-04 06:48 24.84758 110.58920 33153 ft 510 kts 143°
2026-05-04 06:50 24.66946 110.83447 33157 ft 541 kts 111°
2026-05-04 06:51 24.65615 110.91594 33169 ft 549 kts 98°
2026-05-04 06:51 24.65010 110.99979 33169 ft 548 kts 97°
2026-05-04 06:52 24.64378 111.08309 33170 ft 549 kts 98°
2026-05-04 06:52 24.63678 111.16650 33164 ft 548 kts 98°
2026-05-04 06:53 24.62955 111.25011 33159 ft 549 kts 98°
2026-05-04 06:53 24.62229 111.33310 33152 ft 548 kts 98°
2026-05-04 06:54 24.61479 111.41629 33149 ft 548 kts 98°
2026-05-04 06:54 24.60727 111.49957 33146 ft 548 kts 98°
2026-05-04 06:55 24.59973 111.58257 33149 ft 547 kts 98°
2026-05-04 06:55 24.59223 111.66499 33159 ft 547 kts 99°
2026-05-04 06:57 24.56150 111.99727 33187 ft 546 kts 99°
2026-05-04 06:58 24.55367 112.08042 33185 ft 547 kts 99°
2026-05-04 06:58 24.54586 112.16341 33178 ft 546 kts 99°
2026-05-04 06:59 24.53797 112.24631 33167 ft 547 kts 99°
2026-05-04 06:59 24.53003 112.32935 33163 ft 547 kts 99°
2026-05-04 07:01 24.49795 112.66064 33158 ft 547 kts 100°
2026-05-04 07:02 24.48985 112.74320 33151 ft 546 kts 100°
2026-05-04 07:02 24.48165 112.82591 33152 ft 547 kts 100°
2026-05-04 07:03 24.47349 112.90853 33159 ft 546 kts 100°
2026-05-04 07:03 24.46527 112.99144 33165 ft 546 kts 100°
2026-05-04 07:04 24.45691 113.07419 33168 ft 546 kts 100°
2026-05-04 07:04 24.44851 113.15653 33174 ft 546 kts 100°
2026-05-04 07:05 24.44009 113.23905 33180 ft 545 kts 100°
2026-05-04 07:05 24.43161 113.32164 33182 ft 546 kts 100°
2026-05-04 07:06 24.41885 113.44531 33161 ft 546 kts 100°
2026-05-04 07:07 24.41040 113.52811 33143 ft 544 kts 100°
2026-05-04 07:09 24.37645 113.85777 33131 ft 545 kts 100°
2026-05-04 07:09 24.36784 113.94040 33134 ft 545 kts 100°
2026-05-04 07:10 24.35922 114.02283 33137 ft 545 kts 100°
2026-05-04 07:12 24.32742 114.35394 33163 ft 545 kts 99°
2026-05-04 07:12 24.31978 114.43638 33157 ft 544 kts 99°
2026-05-04 07:13 24.31210 114.51839 33152 ft 545 kts 99°
2026-05-04 07:13 24.30485 114.60114 33155 ft 544 kts 98°
2026-05-04 07:14 24.28701 114.80650 33149 ft 543 kts 99°
2026-05-04 07:15 24.27977 114.88896 33150 ft 544 kts 98°
2026-05-04 07:15 24.27274 114.97144 33135 ft 545 kts 98°
2026-05-04 07:16 24.26570 115.05414 33140 ft 545 kts 98°
2026-05-04 07:16 24.25855 115.13696 33143 ft 544 kts 99°
2026-05-04 07:17 24.25142 115.21909 33142 ft 545 kts 99°
2026-05-04 07:17 24.24422 115.30152 33143 ft 544 kts 98°
2026-05-04 07:18 24.23699 115.38419 33145 ft 543 kts 98°
2026-05-04 07:18 24.22987 115.46658 33145 ft 544 kts 97°
2026-05-04 07:19 24.22406 115.54913 33146 ft 545 kts 97°
2026-05-04 07:19 24.21844 115.63210 33145 ft 544 kts 97°
2026-05-04 07:20 24.21267 115.71456 33144 ft 545 kts 97°
2026-05-04 07:20 24.20685 115.79678 33093 ft 541 kts 97°
2026-05-04 07:22 24.18636 116.07937 31297 ft 527 kts 97°
2026-05-04 07:22 24.18347 116.11900 31044 ft 526 kts 97°
2026-05-04 07:23 24.18051 116.15915 30788 ft 525 kts 97°
2026-05-04 07:23 24.17756 116.19910 30507 ft 526 kts 97°
2026-05-04 07:23 24.17463 116.23865 29990 ft 526 kts 97°
2026-05-04 07:23 24.17161 116.27892 29294 ft 526 kts 97°
2026-05-04 07:24 24.16869 116.31827 28562 ft 525 kts 98°
2026-05-04 07:24 24.16572 116.35801 27763 ft 526 kts 97°
2026-05-04 07:24 24.16266 116.39811 26894 ft 528 kts 97°
2026-05-04 07:24 24.15981 116.43778 25995 ft 531 kts 96°
2026-05-04 07:25 24.15791 116.47829 25073 ft 534 kts 94°
2026-05-04 07:26 24.14693 116.75875 20066 ft 511 kts 94°
2026-05-04 07:27 24.14536 116.79730 19441 ft 505 kts 94°
2026-05-04 07:27 24.14376 116.83542 18820 ft 500 kts 94°
2026-05-04 07:27 24.14257 116.87317 18187 ft 496 kts 92°
2026-05-04 07:27 24.14218 116.91042 17559 ft 491 kts 91°
2026-05-04 07:28 24.14198 116.94759 16947 ft 486 kts 91°
2026-05-04 07:28 24.14181 116.98409 16339 ft 482 kts 91°
2026-05-04 07:28 24.14163 117.02076 15736 ft 477 kts 91°
2026-05-04 07:28 24.14144 117.05650 15186 ft 470 kts 91°
2026-05-04 07:29 24.14121 117.09184 14601 ft 455 kts 91°
2026-05-04 07:29 24.14100 117.12580 13995 ft 435 kts 91°
2026-05-04 07:29 24.14079 117.15786 13431 ft 416 kts 91°
2026-05-04 07:29 24.14057 117.18889 12909 ft 402 kts 91°
2026-05-04 07:30 24.14033 117.21928 12515 ft 399 kts 91°
2026-05-04 07:30 24.14009 117.24971 12184 ft 396 kts 91°
2026-05-04 07:30 24.13985 117.27904 11848 ft 381 kts 91°
2026-05-04 07:30 24.13963 117.30730 11554 ft 368 kts 91°
2026-05-04 07:31 24.13941 117.33545 11298 ft 366 kts 91°
2026-05-04 07:31 24.13917 117.36317 11079 ft 364 kts 91°
2026-05-04 07:33 24.16777 117.54264 9665 ft 332 kts 41°
2026-05-04 07:33 24.18404 117.56002 9214 ft 321 kts 41°
2026-05-04 07:33 24.19964 117.57694 8909 ft 309 kts 42°
2026-05-04 07:33 24.21451 117.59360 8600 ft 307 kts 43°
2026-05-04 07:34 24.22920 117.61059 8307 ft 301 kts 44°
2026-05-04 07:34 24.24330 117.62718 8052 ft 295 kts 45°
2026-05-04 07:34 24.25706 117.64353 7764 ft 290 kts 45°
2026-05-04 07:34 24.27058 117.65965 7489 ft 285 kts 46°
2026-05-04 07:35 24.28382 117.67549 7195 ft 282 kts 47°
2026-05-04 07:35 24.29700 117.69125 6904 ft 276 kts 46°
2026-05-04 07:35 24.30980 117.70664 6518 ft 267 kts 47°
2026-05-04 07:35 24.32218 117.72154 6134 ft 259 kts 46°
2026-05-04 07:36 24.33397 117.73575 5793 ft 247 kts 46°
2026-05-04 07:36 24.34533 117.74942 5536 ft 234 kts 46°
2026-05-04 07:38 24.39931 117.83033 3694 ft 162 kts 83°
2026-05-04 07:38 24.40018 117.84236 3443 ft 154 kts 83°
2026-05-04 07:38 24.40093 117.85381 3192 ft 145 kts 82°
2026-05-04 07:38 24.40166 117.86449 2896 ft 138 kts 82°
2026-05-04 07:39 24.40237 117.87519 2906 ft 141 kts 79°
2026-05-04 07:39 24.40319 117.88587 2886 ft 141 kts 81°
2026-05-04 07:39 24.40402 117.89664 2870 ft 141 kts 81°
2026-05-04 07:39 24.40484 117.90733 2867 ft 141 kts 81°
2026-05-04 07:40 24.40564 117.91821 2867 ft 141 kts 81°
2026-05-04 07:40 24.40651 117.92882 2864 ft 140 kts 77°
2026-05-04 07:40 24.40959 117.93887 2849 ft 137 kts 59°
2026-05-04 07:40 24.41497 117.94737 2581 ft 136 kts 52°
2026-05-04 07:41 24.42094 117.95556 2294 ft 137 kts 51°
2026-05-04 07:41 24.42694 117.96379 2287 ft 140 kts 51°
2026-05-04 07:41 24.43307 117.97218 2276 ft 140 kts 51°
2026-05-04 07:41 24.43915 117.98057 2271 ft 140 kts 50°
2026-05-04 07:42 24.44527 117.98908 2274 ft 141 kts 51°
2026-05-04 07:42 24.45133 117.99754 2273 ft 141 kts 51°
2026-05-04 07:42 24.45738 118.00602 2270 ft 140 kts 51°
2026-05-04 07:42 24.46335 118.01440 2271 ft 141 kts 51°
2026-05-04 07:43 24.46941 118.02290 2113 ft 140 kts 51°
2026-05-04 07:43 24.47546 118.03141 1934 ft 140 kts 51°
2026-05-04 07:43 24.48144 118.03979 1760 ft 140 kts 51°
2026-05-04 07:43 24.48740 118.04814 1575 ft 139 kts 51°
2026-05-04 07:44 24.49341 118.05656 1394 ft 139 kts 51°
2026-05-04 07:44 24.49933 118.06486 1213 ft 138 kts 50°
2026-05-04 07:44 24.50525 118.07317 1033 ft 138 kts 50°
2026-05-04 07:44 24.51123 118.08155 849 ft 138 kts 50°
2026-05-04 07:45 24.51713 118.08979 667 ft 137 kts 51°
2026-05-04 07:45 24.52300 118.09798 485 ft 137 kts 51°
2026-05-04 07:45 24.52870 118.10638 307 ft 136 kts 52°
2026-05-04 07:45 24.53460 118.11446 131 ft 134 kts 50°
2026-05-04 07:46 24.54008 118.12201 73 ft 111 kts 51°
2026-05-04 07:46 24.54382 118.12724 73 ft 61 kts 52°
2026-05-04 07:46 24.54503 118.12956 73 ft 23 kts 73°
2026-05-04 07:46 24.54530 118.13106 72 ft 10 kts 93°
2026-05-04 07:47 24.54484 118.13146 72 ft 10 kts 189°
2026-05-04 07:47 24.54417 118.13174 72 ft 10 kts 143°
2026-05-04 07:47 24.54352 118.13211 72 ft 10 kts 186°
2026-05-04 07:49 24.54014 118.12839 73 ft 4 kts 148°
2026-05-04 07:49 24.54007 118.12845 72 ft 1 kts 143°
2026-05-04 07:49 24.53997 118.12852 72 ft 2 kts 142°
2026-05-04 07:50 24.53990 118.12859 72 ft 0 kts 141°
2026-05-04 07:50 24.53986 118.12862 73 ft 1 kts 141°
2026-05-04 07:50 24.53985 118.12863 73 ft 0 kts 141°